• în România
  • Lista ţărilor
  • Pe 7 zile
  • Temperatura apei
  • Hartă satelitară
  • Meteo pe hartă
  • Widget-uri
  • user-avatar
    Intrare

    Meteo pe oră la Zagreb

    Astăzi, 26 Februarie, Luni

    Timp Temperatura Precipitaţii Vânt Presiune Umiditate
    00:00 -12°C° 0 mm 4 m/s 754 mmHg 81%
    01:00 -14°C° 0 mm 4 m/s 753 mmHg 82%
    02:00 -14°C° 0 mm 4 m/s 753 mmHg 82%
    03:00 -14°C° 0 mm 4 m/s 753 mmHg 83%
    04:00 -14°C° 0 mm 4 m/s 752 mmHg 83%
    05:00 -14°C° 0,1 mm 4 m/s 752 mmHg 83%
    06:00 -14°C° 0,1 mm 4 m/s 752 mmHg 83%
    07:00 -14°C° 0,1 mm 5 m/s 752 mmHg 83%
    08:00 -13°C° 0,2 mm 5 m/s 751 mmHg 83%
    09:00 -13°C° 0,2 mm 5 m/s 751 mmHg 83%
    10:00 -12°C° 0,2 mm 6 m/s 751 mmHg 83%
    11:00 -11°C° 0,3 mm 6 m/s 750 mmHg 82%
    12:00 -11°C° 0,3 mm 6 m/s 750 mmHg 81%
    13:00 -10°C° 0,3 mm 6 m/s 749 mmHg 81%
    14:00 -10°C° 0,3 mm 6 m/s 749 mmHg 82%
    15:00 -10°C° 0,3 mm 6 m/s 749 mmHg 82%
    16:00 -10°C° 0,3 mm 6 m/s 749 mmHg 83%
    17:00 -10°C° 0,3 mm 6 m/s 749 mmHg 84%
    18:00 -10°C° 0,3 mm 5 m/s 749 mmHg 85%
    19:00 -11°C° 0,3 mm 5 m/s 749 mmHg 86%
    20:00 -11°C° 0,3 mm 5 m/s 749 mmHg 87%
    21:00 -11°C° 0,3 mm 5 m/s 748 mmHg 88%
    22:00 -11°C° 0,3 mm 5 m/s 748 mmHg 88%
    23:00 -11°C° 0,3 mm 5 m/s 748 mmHg 88%

    Mâine, 27 Februarie, Marţi

    Timp Temperatura Precipitaţii Vânt Presiune Umiditate
    00:00 -11°C° 0,3 mm 5 m/s 748 mmHg 89%
    01:00 -11°C° 0,3 mm 5 m/s 748 mmHg 89%
    02:00 -11°C° 0,3 mm 4 m/s 748 mmHg 89%
    03:00 -11°C° 0,3 mm 4 m/s 747 mmHg 90%
    04:00 -11°C° 0,3 mm 4 m/s 747 mmHg 90%
    05:00 -11°C° 0,2 mm 4 m/s 747 mmHg 90%
    06:00 -11°C° 0,2 mm 4 m/s 747 mmHg 90%
    07:00 -12°C° 0,2 mm 4 m/s 748 mmHg 89%
    08:00 -11°C° 0,2 mm 4 m/s 748 mmHg 87%
    09:00 -11°C° 0,2 mm 4 m/s 748 mmHg 85%
    10:00 -10°C° 0,2 mm 4 m/s 748 mmHg 83%
    11:00 -10°C° 0,1 mm 4 m/s 748 mmHg 82%
    12:00 -9°C° 0,1 mm 4 m/s 748 mmHg 81%
    13:00 -8°C° 0,1 mm 4 m/s 748 mmHg 80%
    14:00 -7°C° 0,1 mm 3 m/s 748 mmHg 80%
    15:00 -7°C° 0,1 mm 3 m/s 748 mmHg 81%
    16:00 -8°C° 0,1 mm 3 m/s 748 mmHg 82%
    17:00 -8°C° 0 mm 2 m/s 749 mmHg 85%
    18:00 -9°C° 0 mm 2 m/s 749 mmHg 89%
    19:00 -9°C° 0 mm 1 m/s 750 mmHg 92%
    20:00 -10°C° 0 mm 1 m/s 750 mmHg 92%
    21:00 -10°C° 0 mm 1 m/s 751 mmHg 93%
    22:00 -11°C° 0 mm 1 m/s 751 mmHg 93%
    23:00 -11°C° 0 mm 1 m/s 751 mmHg 93%

    Poimâine, 28 Februarie, Miercuri

    Timp Temperatura Precipitaţii Vânt Presiune Umiditate
    00:00 -12°C° 0 mm 1 m/s 751 mmHg 93%
    01:00 -12°C° 0 mm 1 m/s 751 mmHg 94%
    02:00 -13°C° 0 mm 1 m/s 752 mmHg 94%
    03:00 -13°C° 0 mm 1 m/s 752 mmHg 94%
    04:00 -13°C° 0 mm 1 m/s 752 mmHg 94%
    05:00 -14°C° 0 mm 1 m/s 752 mmHg 94%
    06:00 -14°C° 0 mm 1 m/s 753 mmHg 94%
    07:00 -14°C° 0 mm 1 m/s 753 mmHg 93%
    08:00 -11°C° 0 mm 1 m/s 753 mmHg 88%
    09:00 -9°C° 0 mm 1 m/s 754 mmHg 83%
    10:00 -7°C° 0 mm 1 m/s 754 mmHg 78%
    11:00 -6°C° 0 mm 1 m/s 754 mmHg 76%
    12:00 -4°C° 0 mm 1 m/s 754 mmHg 74%
    13:00 -3°C° 0 mm 1 m/s 754 mmHg 73%
    14:00 -3°C° 0 mm 1 m/s 754 mmHg 73%
    15:00 -3°C° 0 mm 1 m/s 754 mmHg 74%
    16:00 -3°C° 0 mm 1 m/s 754 mmHg 75%
    17:00 -6°C° 0 mm 1 m/s 755 mmHg 80%
    18:00 -7°C° 0 mm 1 m/s 755 mmHg 85%
    19:00 -9°C° 0 mm 1 m/s 756 mmHg 90%
    20:00 -10°C° 0 mm 1 m/s 756 mmHg 90%
    21:00 -10°C° 0 mm 0 m/s 757 mmHg 91%
    22:00 -11°C° 0 mm 0 m/s 757 mmHg 91%
    23:00 -11°C° 0 mm 0 m/s 757 mmHg 92%

    1 Martie, Joi

    Timp Temperatura Precipitaţii Vânt Presiune Umiditate
    00:00 -12°C° 0 mm 0 m/s 757 mmHg 92%
    01:00 -12°C° 0 mm 0 m/s 757 mmHg 92%
    02:00 -12°C° 0 mm 0 m/s 757 mmHg 92%
    03:00 -13°C° 0 mm 0 m/s 756 mmHg 92%
    04:00 -13°C° 0 mm 0 m/s 756 mmHg 93%
    05:00 -13°C° 0 mm 0 m/s 756 mmHg 93%
    06:00 -13°C° 0 mm 0 m/s 756 mmHg 93%
    07:00 -13°C° 0 mm 0 m/s 756 mmHg 93%
    08:00 -11°C° 0 mm 0 m/s 756 mmHg 88%
    09:00 -9°C° 0 mm 0 m/s 755 mmHg 83%
    10:00 -6°C° 0 mm 1 m/s 755 mmHg 79%
    11:00 -6°C° 0 mm 1 m/s 755 mmHg 77%
    12:00 -4°C° 0 mm 1 m/s 754 mmHg 76%
    13:00 -3°C° 0 mm 1 m/s 753 mmHg 75%
    14:00 -3°C° 0 mm 1 m/s 753 mmHg 77%
    15:00 -3°C° 0 mm 1 m/s 752 mmHg 78%
    16:00 -3°C° 0 mm 1 m/s 752 mmHg 80%
    17:00 -3°C° 0,1 mm 1 m/s 752 mmHg 84%
    18:00 -4°C° 0,1 mm 1 m/s 752 mmHg 88%
    19:00 -4°C° 0,1 mm 1 m/s 752 mmHg 92%
    20:00 -4°C° 0,1 mm 1 m/s 752 mmHg 93%
    21:00 -4°C° 0,1 mm 1 m/s 752 mmHg 94%
    22:00 -4°C° 0,1 mm 1 m/s 752 mmHg 95%
    23:00 -4°C° 0,1 mm 1 m/s 751 mmHg 96%

    2 Martie, Vineri

    Timp Temperatura Precipitaţii Vânt Presiune Umiditate
    00:00 -4°C° 0,1 mm 1 m/s 751 mmHg 96%
    01:00 -6°C° 0,1 mm 1 m/s 750 mmHg 96%
    02:00 -6°C° 0,1 mm 1 m/s 750 mmHg 96%
    03:00 -6°C° 0,1 mm 1 m/s 749 mmHg 96%
    04:00 -6°C° 0,1 mm 1 m/s 749 mmHg 96%
    05:00 -6°C° 0,2 mm 1 m/s 748 mmHg 96%
    06:00 -6°C° 0,2 mm 1 m/s 748 mmHg 96%
    07:00 -6°C° 0,2 mm 1 m/s 748 mmHg 96%
    08:00 -4°C° 0,3 mm 1 m/s 748 mmHg 94%
    09:00 -3°C° 0,3 mm 1 m/s 748 mmHg 92%
    10:00 -3°C° 0,3 mm 1 m/s 748 mmHg 90%
    11:00 -2°C° 0,1 mm 1 m/s 747 mmHg 90%
    12:00 -1°C° 0,1 mm 1 m/s 747 mmHg 89%
    13:00 0°C° 0,1 mm 1 m/s 746 mmHg 89%
    14:00 0°C° 0 mm 1 m/s 746 mmHg 89%
    15:00 0°C° 0 mm 1 m/s 746 mmHg 90%
    16:00 +1°C° 0 mm 1 m/s 746 mmHg 90%
    17:00 0°C° 0 mm 1 m/s 746 mmHg 92%
    18:00 0°C° 0 mm 1 m/s 746 mmHg 94%
    19:00 -1°C° 0 mm 1 m/s 747 mmHg 96%
    20:00 -1°C° 0 mm 1 m/s 747 mmHg 96%
    21:00 -2°C° 0 mm 0 m/s 747 mmHg 96%
    22:00 -2°C° 0 mm 0 m/s 747 mmHg 96%
    23:00 -3°C° 0 mm 0 m/s 747 mmHg 97%

    3 Martie, Sâmbătă

    Timp Temperatura Precipitaţii Vânt Presiune Umiditate
    00:00 -3°C° 0 mm 0 m/s 747 mmHg 97%
    01:00 -4°C° 0 mm 0 m/s 746 mmHg 97%
    02:00 -4°C° 0 mm 0 m/s 746 mmHg 96%
    03:00 -4°C° 0 mm 0 m/s 746 mmHg 96%
    04:00 -4°C° 0 mm 0 m/s 745 mmHg 96%
    05:00 -4°C° 0 mm 0 m/s 745 mmHg 96%
    06:00 -3°C° 0 mm 1 m/s 745 mmHg 96%
    07:00 -3°C° 0 mm 1 m/s 745 mmHg 95%
    08:00 -1°C° 0 mm 1 m/s 745 mmHg 95%
    09:00 0°C° 0 mm 1 m/s 745 mmHg 94%
    10:00 +2°C° 0 mm 1 m/s 745 mmHg 93%
    11:00 +2°C° 0 mm 1 m/s 745 mmHg 93%
    12:00 +3°C° 0 mm 1 m/s 745 mmHg 93%
    13:00 +4°C° 0 mm 1 m/s 745 mmHg 94%
    14:00 +4°C° 0 mm 1 m/s 745 mmHg 95%
    15:00 +4°C° 0 mm 1 m/s 745 mmHg 96%
    16:00 +4°C° 0 mm 1 m/s 745 mmHg 97%
    17:00 +3°C° 0 mm 1 m/s 745 mmHg 97%
    18:00 +2°C° 0 mm 1 m/s 745 mmHg 97%
    19:00 +2°C° 0 mm 1 m/s 745 mmHg 97%
    20:00 +1°C° 0 mm 0 m/s 745 mmHg 97%
    21:00 +1°C° 0 mm 0 m/s 746 mmHg 97%
    22:00 +1°C° 0 mm 0 m/s 746 mmHg 97%
    23:00 +1°C° 0 mm 0 m/s 746 mmHg 97%
    Arată mai mult